Location: Unspecified
(0.0000°N, 0.0000°E)
Time: 13:53:24
(UTC+02:00)

PROBA 2 - Pass Details

Date: 06 June 2022
Orbit: 704 x 725 km, 98.2° (Epoch: 30 June)

Event Time Altitude Azimuth Distance (km) Brightness Sun altitude
Rises 06:53:12 0° 136° (SE) 3,138 ? -15.1°
Reaches altitude 10° 06:56:21 10° 114° (ESE) 2,212 ? -14.4°
Maximum altitude 06:59:12 16° 78° (ENE) 1,847 ? -13.7°
Drops below altitude 10° 07:02:03 10° 41° (NE) 2,201 ? -13.0°
Sets 07:05:09 0° 20° (NNE) 3,114 ? -12.3°
